Weather History for PASX - April, 2013

Change the Weather History Date:

Wednesday, April 24, 2013

  Actual Average Record
Temperature  
Mean Temperature 36 °F -  
Max Temperature 39 °F 45 °F 57 °F (1983)
Min Temperature 33 °F 28 °F 13 °F (1955)
Degree Days  
Heating Degree Days 29    
Moisture  
Dew Point 34 °F    
Average Humidity 89    
Maximum Humidity 100    
Minimum Humidity 65    
Precipitation  
Precipitation 0.00 in - - ()
Sea Level Pressure  
Sea Level Pressure 30.11 in    
Wind  
Wind Speed 3 mph (West)    
Max Wind Speed 9 mph    
Max Gust Speed -    
Visibility 8 miles    
Events      
Averages and records for this station are not official NWS values.
T = Trace of Precipitation, MM = Missing Value Source: NWS Daily Summary

Daily Weather History Graph

Daily Weather History Graph

Search for Another Location

Airport or City:

Trip Planner

Search our weather history database for the weather conditions in past years. The results will help you decide how hot, cold, wet, or windy it might be!

Date:

Astronomy

Apr. 24, 2013 Rise Set
Actual Time 6:17 AM AKDT 9:48 PM AKDT
Civil Twilight 5:27 AM AKDT 10:39 PM AKDT
Nautical Twilight 4:13 AM AKDT 11:55 PM AKDT
Astronomical Twilight 2:34 AM AKDT 1:29 AM AKDT
Moon 8:57 PM AKDT (4/24) 5:45 AM AKDT (4/24)
Length of Visible Light 17h 12m
Length of Day
15h 30m
Waxing Gibbous, 99% of the Moon is Illuminated
Apr 24
Waxing Gibbous
Apr 25
Full
May 2
Last Quarter
May 9
New
May 17
First Quarter

Hourly Weather History & Observations

Time (AKDT) Temp. Windchill Dew Point Humidity Pressure Visibility Wind Dir Wind Speed Gust Speed Precip Events Conditions
12:16 AM 35.6 °F 31.7 °F 33.8 °F 93% 30.34 in 2.0 mi West 4.6 mph - N/A   Overcast
12:36 AM 35.6 °F - 33.8 °F 93% 30.34 in 8.0 mi Calm Calm - N/A   Overcast
12:56 AM 35.6 °F - 33.8 °F 93% 30.33 in 7.0 mi Calm Calm - N/A   Overcast
1:16 AM 35.6 °F - 33.8 °F 93% 30.33 in 3.0 mi Calm Calm - N/A   Overcast
1:36 AM 35.6 °F 32.8 °F 33.8 °F 93% 30.33 in 2.5 mi WSW 3.5 mph - N/A   Overcast
1:56 AM 35.6 °F 32.8 °F 33.8 °F 93% 30.32 in 2.5 mi WSW 3.5 mph - N/A   Overcast
2:16 AM 35.6 °F 32.8 °F 33.8 °F 93% 30.31 in 4.0 mi SW 3.5 mph - N/A   Overcast
2:36 AM 35.6 °F 32.8 °F 33.8 °F 93% 30.31 in 3.0 mi SSW 3.5 mph - N/A   Overcast
2:56 AM 35.6 °F 32.8 °F 33.8 °F 93% 30.30 in 8.0 mi SW 3.5 mph - N/A   Overcast
3:16 AM 35.6 °F 32.8 °F 33.8 °F 93% 30.30 in 7.0 mi West 3.5 mph - N/A   Overcast
3:36 AM 35.6 °F - 33.8 °F 93% 30.29 in 7.0 mi Calm Calm - N/A   Overcast
3:56 AM 35.6 °F - 33.8 °F 93% 30.28 in 10.0 mi Calm Calm - N/A   Overcast
4:16 AM 35.6 °F - 33.8 °F 93% 30.28 in 10.0 mi Calm Calm - N/A   Overcast
4:36 AM 35.6 °F - 33.8 °F 93% 30.28 in 9.0 mi Calm Calm - N/A   Overcast
4:56 AM 35.6 °F - 33.8 °F 93% 30.28 in 7.0 mi Calm Calm - N/A   Overcast
5:16 AM 35.6 °F - 33.8 °F 93% 30.27 in 0.2 mi Calm Calm - N/A   Overcast
5:36 AM 35.6 °F - 33.8 °F 93% 30.26 in 0.2 mi Calm Calm - N/A   Overcast
5:56 AM 35.6 °F - 33.8 °F 93% 30.26 in 0.5 mi Calm Calm - N/A   Overcast
6:16 AM 35.6 °F - 33.8 °F 93% 30.26 in 1.2 mi Calm Calm - N/A   Overcast
6:36 AM 33.8 °F - 33.8 °F 100% 30.24 in 0.5 mi Calm Calm - N/A   Overcast
6:56 AM 33.8 °F - 33.8 °F 100% 30.24 in 0.2 mi Calm Calm - N/A   Overcast
7:16 AM 33.8 °F - 33.8 °F 100% 30.24 in 3.0 mi Calm Calm - N/A   Overcast
7:36 AM 33.8 °F - 33.8 °F 100% 30.23 in 8.0 mi Calm Calm - N/A   Overcast
7:56 AM 35.6 °F - 33.8 °F 93% 30.23 in 10.0 mi Calm Calm - N/A   Overcast
8:16 AM 35.6 °F 32.8 °F 33.8 °F 93% 30.21 in 10.0 mi South 3.5 mph - N/A   Overcast
8:36 AM 35.6 °F 30.7 °F 33.8 °F 93% 30.20 in 10.0 mi SSW 5.8 mph - N/A   Overcast
8:56 AM 35.6 °F 32.8 °F 33.8 °F 93% 30.20 in 10.0 mi SSW 3.5 mph - N/A   Overcast
9:16 AM 35.6 °F 30.7 °F 33.8 °F 93% 30.19 in 10.0 mi WSW 5.8 mph - N/A   Overcast
9:36 AM 35.6 °F 29.2 °F 32.0 °F 87% 30.18 in 10.0 mi SW 8.1 mph - N/A   Overcast
9:56 AM 35.6 °F 30.7 °F 33.8 °F 93% 30.18 in 10.0 mi South 5.8 mph - N/A   Overcast
10:16 AM 35.6 °F 31.7 °F 33.8 °F 93% 30.17 in 10.0 mi South 4.6 mph - N/A   Overcast
10:36 AM 37.4 °F 34.9 °F 33.8 °F 87% 30.17 in 10.0 mi South 3.5 mph - N/A   Overcast
10:56 AM 37.4 °F 34.9 °F 33.8 °F 87% 30.16 in 10.0 mi SSW 3.5 mph - N/A   Mostly Cloudy
11:16 AM 37.4 °F 33.8 °F 33.8 °F 87% 30.15 in 10.0 mi SSW 4.6 mph - N/A   Mostly Cloudy
11:36 AM 37.4 °F 34.9 °F 33.8 °F 87% 30.14 in 10.0 mi SW 3.5 mph - N/A   Mostly Cloudy
11:56 AM 37.4 °F 34.9 °F 33.8 °F 87% 30.13 in 10.0 mi WSW 3.5 mph - N/A   Overcast
12:16 PM 37.4 °F 33.8 °F 33.8 °F 87% 30.12 in 10.0 mi WSW 4.6 mph - N/A   Overcast
12:36 PM 37.4 °F 33.8 °F 33.8 °F 87% 30.11 in 10.0 mi WSW 4.6 mph - N/A   Overcast
12:56 PM 37.4 °F 33.8 °F 32.0 °F 81% 30.10 in 10.0 mi SW 4.6 mph - N/A   Overcast
1:16 PM 37.4 °F 33.8 °F 33.8 °F 87% 30.09 in 10.0 mi WNW 4.6 mph - N/A   Overcast
1:36 PM 37.4 °F 34.9 °F 33.8 °F 87% 30.08 in 10.0 mi NW 3.5 mph - N/A   Overcast
1:56 PM 37.4 °F 34.9 °F 33.8 °F 87% 30.07 in 10.0 mi NW 3.5 mph - N/A   Overcast
2:16 PM 37.4 °F 33.8 °F 33.8 °F 87% 30.07 in 10.0 mi North 4.6 mph - N/A   Overcast
2:36 PM 37.4 °F 34.9 °F 33.8 °F 87% 30.06 in 10.0 mi NW 3.5 mph - N/A   Overcast
2:56 PM 37.4 °F 33.8 °F 33.8 °F 87% 30.05 in 10.0 mi NW 4.6 mph - N/A   Overcast
3:16 PM 37.4 °F 34.9 °F 33.8 °F 87% 30.04 in 10.0 mi NW 3.5 mph - N/A   Overcast
3:36 PM 37.4 °F 34.9 °F 33.8 °F 87% 30.03 in 10.0 mi WNW 3.5 mph - N/A   Overcast
3:56 PM 37.4 °F 33.8 °F 33.8 °F 87% 30.02 in 10.0 mi WNW 4.6 mph - N/A   Overcast
4:16 PM 37.4 °F - 33.8 °F 87% 30.02 in 10.0 mi Calm Calm - N/A   Overcast
4:36 PM 37.4 °F 33.8 °F 33.8 °F 87% 30.00 in 10.0 mi WNW 4.6 mph - N/A   Mostly Cloudy
4:56 PM 37.4 °F - 33.8 °F 87% 29.99 in 10.0 mi Calm Calm - N/A   Mostly Cloudy
5:16 PM 37.4 °F - 33.8 °F 87% 29.97 in 10.0 mi Calm Calm - N/A   Partly Cloudy
5:36 PM 37.4 °F - 33.8 °F 87% 29.96 in 10.0 mi Calm Calm - N/A   Clear
5:56 PM 37.4 °F 34.9 °F 33.8 °F 87% 29.95 in 10.0 mi NE 3.5 mph - N/A   Partly Cloudy
6:56 PM 39.2 °F - 35.6 °F 87% 29.92 in 10.0 mi Calm Calm - N/A   Clear
7:16 PM 39.2 °F - 35.6 °F 87% 29.91 in 10.0 mi Calm Calm - N/A   Scattered Clouds
7:36 PM 39.2 °F 35.9 °F 35.6 °F 87% 29.90 in 10.0 mi NE 4.6 mph - N/A   Overcast
7:56 PM 39.2 °F 35.0 °F 35.6 °F 87% 29.90 in 10.0 mi NE 5.8 mph - N/A   Overcast
8:16 PM 39.2 °F - 35.6 °F 87% 29.89 in 10.0 mi Calm Calm - N/A   Overcast
8:36 PM 39.2 °F - 35.6 °F 87% 29.88 in 10.0 mi Calm Calm - N/A   Overcast
8:56 PM 39.2 °F - 35.6 °F 87% 29.87 in 10.0 mi Calm Calm - N/A   Overcast
9:16 PM 39.2 °F 33.6 °F 35.6 °F 87% 29.88 in 10.0 mi NE 8.1 mph - N/A   Overcast
9:36 PM 39.2 °F 37.0 °F 33.8 °F 81% 29.88 in 10.0 mi East 3.5 mph - N/A   Mostly Cloudy
9:56 PM 37.4 °F - 33.8 °F 87% 29.87 in 10.0 mi Calm Calm - N/A   Mostly Cloudy
10:16 PM 37.4 °F 33.8 °F 35.6 °F 93% 29.85 in 10.0 mi SW 4.6 mph - N/A   Mostly Cloudy
10:36 PM 37.4 °F 33.8 °F 35.6 °F 93% 29.85 in 10.0 mi NW 4.6 mph - N/A   Mostly Cloudy
10:56 PM 37.4 °F 34.9 °F 33.8 °F 87% 29.85 in 10.0 mi NNE 3.5 mph - N/A   Overcast
11:16 PM 39.2 °F 33.0 °F 28.4 °F 65% 29.85 in 10.0 mi NW 9.2 mph - N/A   Overcast
11:36 PM 39.2 °F 35.0 °F 30.2 °F 70% 29.85 in 10.0 mi NNE 5.8 mph - N/A   Overcast
11:56 PM 37.4 °F - 30.2 °F 75% 29.85 in 10.0 mi Calm Calm - N/A   Overcast